Location: London
(42.9830°N, 81.2500°W)
Time: 21:05:06
(UTC-04:00)

Amateur Radio Satellites - All Passes

Search period start: 29 March 2015 20:35
Search period end: 30 March 2015 20:35
Location: London, 42.9830°N, 81.2500°W

Satellite Date Start Highest point End Downlink Frequencies (MHz)
Time Altitude Azimuth
AUBIESAT-1 29 Mar 20:38:32 20:41:36 17° 303° (WNW) 20:44:29 437.475
GOMX 1 29 Mar 20:38:47 20:42:46 34° 71° (ENE) 20:46:38 467.674
CUTE 1.7 + AOD 2 29 Mar 20:39:08 20:42:43 28° 69° (ENE) 20:46:24 437.475
PRISM 29 Mar 20:44:21 20:48:19 41° 289° (WNW) 20:52:12 437.425
STRAND 1 29 Mar 20:52:30 20:57:35 65° 287° (WNW) 21:02:37 437.568
SO-50 29 Mar 20:57:43 21:01:55 31° 315° (NW) 21:06:13 436.795
CUSAT 1 29 Mar 21:01:09 21:02:34 13° 94° (E) 21:04:01 437.405
AAUSAT CUBESAT 2 29 Mar 21:02:40 21:06:17 30° 70° (ENE) 21:09:59 437.432
BEESAT 3 29 Mar 21:05:39 21:08:19 16° 248° (WSW) 21:10:48 437.485
SEEDS 29 Mar 21:07:30 21:11:31 47° 73° (ENE) 21:15:38 437.485
HO-68 29 Mar 21:11:23 21:18:33 83° 72° (ENE) 21:25:48 435.675
GONETS M04 29 Mar 21:26:26 21:34:46 47° 287° (WNW) 21:43:07
COMPASS 1 29 Mar 21:29:24 21:33:34 68° 75° (ENE) 21:37:46 437.405
Oscar 11 29 Mar 21:29:51 21:33:34 29° 69° (ENE) 21:37:22 145.826/435.025
BRITE-PL 29 Mar 21:31:03 21:35:35 44° 261° (W) 21:39:48 437.365/2234.400
CUBESAT XI-V 29 Mar 21:39:53 21:41:46 12° 299° (WNW) 21:43:26 437.345
CINEMA 3 29 Mar 21:41:11 21:45:15 53° 74° (ENE) 21:49:19 145.822/145.860
AIST 2 29 Mar 21:41:36 21:45:03 24° 246° (WSW) 21:48:22 435.215
FUNcube-1 29 Mar 21:41:47 21:44:44 20° 67° (ENE) 21:47:49 145.935
UWE-3 29 Mar 21:46:13 21:49:41 27° 69° (ENE) 21:53:15 435.000/436.395/437.385
DANDE 29 Mar 21:50:43 21:53:44 56° 99° (E) 21:56:22 436.750
CUBEBUG 2 29 Mar 21:51:30 21:55:17 37° 71° (ENE) 21:59:09 437.445
ZACube-1 29 Mar 21:54:12 21:57:39 27° 69° (ENE) 22:01:12 437.345
VELOX 1 29 Mar 21:55:01 21:56:08 11° 61° (ENE) 21:57:29 145.980
RS-15 29 Mar 21:55:47 22:06:11 46° 321° (NW) 22:16:48 29.354- 29.394
AISAT 29 Mar 21:59:04 22:00:53 13° 62° (ENE) 22:02:54 437.250
CANX-2 29 Mar 22:00:47 22:04:39 33° 264° (W) 22:08:32 2200.000
DOVE 4 29 Mar 22:03:57 22:08:05 42° 261° (W) 22:12:06 437.250
CUTE 1.7 + AOD 2 29 Mar 22:15:02 22:18:38 26° 266° (W) 22:22:13 437.475
DELFI C3 29 Mar 22:15:15 22:19:17 70° 75° (ENE) 22:23:23 145.870
GOMX 1 29 Mar 22:17:29 22:21:02 22° 266° (W) 22:24:21 467.674
ESTCUBE 1 29 Mar 22:29:13 22:31:22 14° 62° (ENE) 22:33:42 437.505/2401.250
UKube-1 29 Mar 22:35:47 22:40:03 61° 73° (ENE) 22:44:21 .
AAUSAT CUBESAT 2 29 Mar 22:38:32 22:41:58 24° 267° (W) 22:45:21 437.432
HUMSAT D 29 Mar 22:42:11 22:46:05 45° 72° (ENE) 22:50:02 437.325/437.525
CUSAT 1 29 Mar 22:43:50 22:45:18 13° 288° (WNW) 22:46:38 437.405
SEEDS 29 Mar 22:45:04 22:47:40 15° 270° (W) 22:50:08 437.485
DX 1 29 Mar 22:46:20 22:50:42 84° 76° (ENE) 22:55:05 434.975-435.025
HO-68 29 Mar 23:02:21 23:07:15 18° 272° (W) 23:11:49 435.675
ISS 29 Mar 23:06:05 23:08:57 29° 138° (SE) 23:11:51 145.825
Oscar 11 29 Mar 23:06:06 23:09:45 26° 266° (W) 23:13:22 145.826/435.025
COMPASS 1 29 Mar 23:08:52 23:09:50 10° 273° (W) 23:10:32 437.405
FUNcube-1 29 Mar 23:17:03 23:20:53 36° 263° (W) 23:24:44 145.935
POPSAT HIP 1 29 Mar 23:18:20 23:19:29 11° 88° (E) 23:20:53 437.405
CINEMA 3 29 Mar 23:20:53 23:22:54 13° 271° (W) 23:24:43 145.822/145.860
UWE-3 29 Mar 23:22:45 23:26:15 25° 266° (W) 23:29:42 435.000/436.395/437.385
50 SAT 29 Mar 23:24:28 23:28:22 88° 257° (WSW) 23:32:20 437.505
CUBEBUG 1 29 Mar 23:26:58 23:31:07 43° 72° (ENE) 23:35:19 437.445
YUBILEINY 29 Mar 23:27:01 23:30:27 13° 51° (NE) 23:34:29 435.215
VELOX 1 29 Mar 23:27:39 23:32:07 84° 258° (WSW) 23:36:36 145.980
NANOSAT C BR1 29 Mar 23:27:50 23:30:06 15° 90° (E) 23:32:34 145.865
CUBEBUG 2 29 Mar 23:29:14 23:32:12 18° 269° (W) 23:35:04 437.445
ZACube-1 29 Mar 23:30:31 23:34:01 26° 266° (W) 23:37:30 437.345
POLYITAN 1 29 Mar 23:32:03 23:34:45 17° 91° (E) 23:37:35 437.675
AISAT 29 Mar 23:32:32 23:36:59 73° 259° (WSW) 23:41:26 437.250
UNISAT 6 29 Mar 23:34:08 23:38:21 36° 96° (E) 23:42:40 437.425
SPROUT 29 Mar 23:36:36 23:38:59 15° 64° (ENE) 23:41:32 437.525
TIGRISAT 29 Mar 23:44:07 23:48:29 44° 98° (E) 23:52:56 435.000
PCSat 29 Mar 23:44:44 23:49:41 35° 49° (NE) 23:54:38 145.827
ESTCUBE 1 30 Mar 00:03:12 00:07:44 70° 258° (WSW) 00:12:18 437.505/2401.250
QB50P1 30 Mar 00:08:08 00:12:08 40° 98° (E) 00:16:09 145.935-145.965
DUCHIFAT 1 30 Mar 00:09:46 00:13:46 41° 98° (E) 00:17:46 145.980
RS-15 30 Mar 00:13:49 00:22:23 24° 353° (N) 00:31:08 29.354- 29.394
ANTELSAT 30 Mar 00:14:30 00:19:06 87° 284° (WNW) 00:23:46 437.575/2403.000
UKube-1 30 Mar 00:14:36 00:16:41 13° 271° (W) 00:18:32 .
HUMSAT D 30 Mar 00:19:41 00:22:10 15° 270° (W) 00:24:31 437.325/437.525
QB50P2 30 Mar 00:22:58 00:27:11 61° 101° (E) 00:31:23 145.880/145.840
ISS 30 Mar 00:42:12 00:45:18 39° 335° (NNW) 00:48:23 145.825
BUGSAT 1 30 Mar 00:48:47 00:52:50 83° 100° (E) 00:56:52 437.445
POPSAT HIP 1 30 Mar 00:51:42 00:55:54 65° 286° (WNW) 01:00:05 437.405
TISAT 1 30 Mar 00:58:26 01:02:40 86° 254° (WSW) 01:06:55 437.305
NANOSAT C BR1 30 Mar 01:02:13 01:06:19 50° 287° (WNW) 01:10:24 145.865
CUBEBUG 1 30 Mar 01:04:37 01:07:45 18° 269° (W) 01:10:44 437.445
POLYITAN 1 30 Mar 01:06:54 01:10:57 43° 288° (WNW) 01:14:58 437.675
ITUPSAT 1 30 Mar 01:10:04 01:13:44 23° 65° (ENE) 01:17:31 437.325
SPROUT 30 Mar 01:10:29 01:14:42 54° 260° (W) 01:18:55 437.525
UNISAT 6 30 Mar 01:11:15 01:15:00 25° 293° (WNW) 01:18:43 437.425
YUBILEINY 30 Mar 01:20:56 01:29:41 62° 77° (ENE) 01:38:22 435.215
TIGRISAT 30 Mar 01:21:34 01:24:59 21° 294° (WNW) 01:28:20 435.000
PCSat 30 Mar 01:28:08 01:33:10 38° 248° (WSW) 01:38:05 145.827
QB50P1 30 Mar 01:44:44 01:47:47 19° 294° (WNW) 01:50:42 145.935-145.965
DUCHIFAT 1 30 Mar 01:46:21 01:49:21 19° 294° (WNW) 01:52:14 145.980
Oscar 19 30 Mar 01:49:04 01:52:16 17° 89° (E) 01:55:41 437.125/150
ANTELSAT 30 Mar 01:54:14 01:55:16 11° 299° (WNW) 01:56:04 437.575/2403.000
SWISSCUBE 30 Mar 01:56:26 02:01:11 68° 74° (ENE) 02:06:00 437.505
BEESAT 30 Mar 01:59:19 02:04:04 67° 73° (ENE) 02:08:51 436.000
QB50P2 30 Mar 02:00:29 02:02:40 14° 296° (WNW) 02:04:39 145.880/145.840
KKS-1 30 Mar 02:02:14 02:04:28 14° 63° (ENE) 02:06:53 437.445
SO-50 30 Mar 02:08:45 02:10:16 11° 28° (NNE) 02:11:56 436.795
ISS 30 Mar 02:19:59 02:22:19 18° 354° (N) 02:24:40 145.825
RS-15 30 Mar 02:29:41 02:39:27 33° 27° (NNE) 02:49:46 29.354- 29.394
STARS 30 Mar 02:32:16 02:35:11 18° 65° (ENE) 02:38:15 437.465
ITUPSAT 1 30 Mar 02:46:48 02:51:24 43° 262° (W) 02:56:00 437.325
ITAMSAT 1 30 Mar 02:55:08 02:59:06 22° 92° (E) 03:03:10 435.822/435.867
YUBILEINY 30 Mar 03:18:37 03:26:00 30° 276° (W) 03:33:05 435.215
Oscar 19 30 Mar 03:27:00 03:32:07 62° 288° (WNW) 03:37:14 437.125/150
KKS-1 30 Mar 03:36:16 03:40:40 64° 259° (WSW) 03:45:06 437.445
SWISSCUBE 30 Mar 03:37:06 03:39:37 14° 272° (W) 03:41:54 437.505
O/OREOS (USA 219) 30 Mar 03:38:14 03:40:19 13° 100° (E) 03:42:39 437.305
BEESAT 30 Mar 03:39:55 03:42:29 14° 272° (W) 03:44:48 436.000
Gurwin Techsat 1B 30 Mar 03:46:30 03:51:42 55° 100° (E) 03:56:55 435.225
SO-50 30 Mar 03:47:19 03:52:06 46° 50° (NE) 03:56:52 436.795
AO-7 30 Mar 03:52:05 03:55:38 14° 85° (E) 03:59:49 29.400- 29.500
ISS 30 Mar 03:56:53 03:59:31 23° 14° (NNE) 04:02:11 145.825
HORYU 2 30 Mar 04:04:07 04:07:08 18° 91° (E) 04:10:19 437.375
JAS-2 30 Mar 04:06:26 04:10:41 16° 82° (E) 04:15:12 435.910
STARS 30 Mar 04:07:09 04:11:22 45° 261° (W) 04:15:36 437.465
AUBIESAT-1 30 Mar 04:19:43 04:21:27 13° 55° (NE) 04:23:24 437.475
ITAMSAT 1 30 Mar 04:33:55 04:38:53 47° 290° (WNW) 04:43:48 435.822/435.867
RS-15 30 Mar 04:42:23 04:53:55 82° 55° (NE) 05:05:59 29.354- 29.394
M-CUBED/EXP-1 PRIME 30 Mar 04:42:56 04:46:09 23° 60° (ENE) 04:49:39 437.505
AIST 1 30 Mar 05:04:06 05:08:31 87° 280° (W) 05:12:57
O/OREOS (USA 219) 30 Mar 05:14:41 05:19:15 64° 295° (WNW) 05:23:51 437.305
MOZHAYETS 4 30 Mar 05:15:19 05:19:56 80° 74° (ENE) 05:24:36
Gurwin Techsat 1B 30 Mar 05:27:21 05:31:20 21° 297° (WNW) 05:35:12 435.225
SO-50 30 Mar 05:28:22 05:32:27 25° 247° (WSW) 05:36:25 436.795
CUBESAT XI-V 30 Mar 05:31:14 05:32:11 11° 61° (ENE) 05:33:24 437.345
ISS 30 Mar 05:33:02 05:36:17 89° 33° (NNE) 05:39:30 145.825
GONETS M04 30 Mar 05:39:19 05:45:25 21° 59° (ENE) 05:51:54
HORYU 2 30 Mar 05:39:45 05:44:05 46° 289° (WNW) 05:48:23 437.375
AO-7 30 Mar 05:41:46 05:50:05 74° 105° (ESE) 05:58:23 29.400- 29.500
JAS-2 30 Mar 05:49:14 05:57:05 84° 103° (ESE) 06:04:16 435.910
AUBIESAT-1 30 Mar 05:51:33 05:55:36 79° 253° (WSW) 06:00:03 437.475
PRISM 30 Mar 06:01:35 06:04:07 16° 64° (ENE) 06:06:48 437.425
M-CUBED/EXP-1 PRIME 30 Mar 06:17:04 06:20:49 36° 259° (W) 06:24:53 437.505
STRAND 1 30 Mar 06:31:16 06:35:26 26° 66° (ENE) 06:39:43 437.568
VERMONT LUNAR 30 Mar 06:32:00 06:35:02 32° 162° (SSE) 06:38:05 437.305
RS-15 30 Mar 06:55:54 07:05:25 29° 255° (WSW) 07:14:47 29.354- 29.394
MOZHAYETS 4 30 Mar 06:56:47 06:57:52 10° 274° (W) 06:58:39
CUTE-I 30 Mar 07:00:09 07:04:36 27° 94° (E) 07:09:07 437.470
Cubesat XI-IV 30 Mar 07:00:32 07:05:01 28° 94° (E) 07:09:35 437.490
CUBESAT XI-V 30 Mar 07:04:15 07:08:59 86° 75° (ENE) 07:13:43 437.345
ISS 30 Mar 07:11:09 07:12:15 11° 229° (SW) 07:13:15 145.825
PHONESAT 2.4 30 Mar 07:18:17 07:21:28 32° 161° (SSE) 07:24:40 2401.200-2431.200
CUSAT 1 30 Mar 07:33:25 07:36:45 22° 74° (ENE) 07:40:57 437.405
GONETS M04 30 Mar 07:34:49 07:43:42 89° 269° (W) 07:52:35
PRISM 30 Mar 07:35:10 07:39:16 49° 260° (W) 07:43:23 437.425
JAS-2 30 Mar 07:35:24 07:41:14 23° 303° (WNW) 07:46:35 435.910
AO-7 30 Mar 07:35:28 07:42:17 29° 305° (NW) 07:48:53 29.400- 29.500
VERMONT LUNAR 30 Mar 08:09:11 08:12:29 56° 178° (S) 08:15:47 437.305
STRAND 1 30 Mar 08:09:36 08:14:28 41° 262° (W) 08:19:20 437.568
DANDE 30 Mar 08:26:55 08:30:50 52° 79° (E) 08:36:05 436.750
CUTE-I 30 Mar 08:39:52 08:44:50 40° 291° (WNW) 08:49:44 437.470
Cubesat XI-IV 30 Mar 08:40:18 08:45:16 39° 292° (WNW) 08:50:09 437.490
HO-68 30 Mar 08:40:36 08:43:53 14° 85° (E) 08:47:37 435.675
PHONESAT 2.4 30 Mar 08:56:04 08:59:33 57° 178° (S) 09:03:02 2401.200-2431.200
COMPASS 1 30 Mar 09:14:54 09:15:40 11° 87° (E) 09:16:43 437.405
CUSAT 1 30 Mar 09:15:26 09:19:31 39° 263° (W) 09:24:49 437.405
GONETS M04 30 Mar 09:33:41 09:39:28 19° 281° (WNW) 09:44:47
BRITE-PL 30 Mar 09:34:14 09:38:18 47° 100° (E) 09:42:34 437.365/2234.400
CINEMA 3 30 Mar 09:36:29 09:38:13 12° 88° (E) 09:40:12 145.822/145.860
CANX-2 30 Mar 09:44:56 09:48:57 38° 97° (E) 09:53:00 2200.000
VERMONT LUNAR 30 Mar 09:46:50 09:49:57 37° 196° (SSW) 09:53:06 437.305
CUTE 1.7 + AOD 2 30 Mar 09:58:38 10:02:49 48° 98° (E) 10:07:00 437.475
DOVE 4 30 Mar 10:01:18 10:05:25 42° 98° (E) 10:09:45 437.250
DANDE 30 Mar 10:11:37 10:14:07 14° 265° (W) 10:16:45 436.750
POPSAT HIP 1 30 Mar 10:13:12 10:14:05 11° 62° (ENE) 10:15:11 437.405
GOMX 1 30 Mar 10:16:32 10:20:49 90° 285° (WNW) 10:25:19 467.674
AAUSAT CUBESAT 2 30 Mar 10:19:52 10:24:00 49° 99° (E) 10:28:07 437.432
NANOSAT C BR1 30 Mar 10:22:14 10:24:14 14° 64° (ENE) 10:26:25 145.865
BEESAT 2 30 Mar 10:23:00 10:26:25 26° 115° (ESE) 10:29:55 435.950
HO-68 30 Mar 10:25:37 10:32:53 80° 105° (ESE) 10:40:05 435.675
SEEDS 30 Mar 10:26:32 10:30:51 84° 102° (ESE) 10:35:07 437.485
POLYITAN 1 30 Mar 10:26:49 10:29:14 16° 65° (ENE) 10:31:49 437.675
PHONESAT 2.4 30 Mar 10:34:20 10:37:41 40° 194° (SSW) 10:41:02 2401.200-2431.200
UNISAT 6 30 Mar 10:34:28 10:38:17 34° 70° (ENE) 10:42:13 437.425
DX 1 30 Mar 10:35:36 10:37:35 13° 89° (E) 10:39:47 434.975-435.025
TIGRISAT 30 Mar 10:44:06 10:48:05 41° 72° (ENE) 10:52:10 435.000
COMPASS 1 30 Mar 10:47:41 10:51:57 70° 284° (WNW) 10:56:10 437.405
Oscar 11 30 Mar 10:51:42 10:55:58 52° 99° (E) 11:00:14 145.826/435.025
BEESAT 3 30 Mar 10:58:15 11:02:19 73° 122° (ESE) 11:06:28 437.485
QB50P1 30 Mar 11:01:57 11:05:45 34° 70° (ENE) 11:09:36 145.935-145.965
DUCHIFAT 1 30 Mar 11:03:16 11:07:05 35° 70° (ENE) 11:10:55 145.980
50 SAT 30 Mar 11:03:40 11:04:47 11° 88° (E) 11:06:09 437.505
FUNcube-1 30 Mar 11:04:01 11:08:06 37° 97° (E) 11:12:16 145.935
UWE-3 30 Mar 11:10:30 11:14:51 55° 100° (E) 11:19:18 435.000/436.395/437.385
CINEMA 3 30 Mar 11:11:31 11:15:54 67° 285° (WNW) 11:20:27 145.822/145.860
BRITE-PL 30 Mar 11:13:57 11:16:35 16° 294° (WNW) 11:19:08 437.365/2234.400
ANTELSAT 30 Mar 11:14:34 11:18:50 88° 256° (WSW) 11:23:12 437.575/2403.000
QB50P2 30 Mar 11:16:47 11:20:52 51° 73° (ENE) 11:24:59 145.880/145.840
ZACube-1 30 Mar 11:17:07 11:21:25 52° 99° (E) 11:25:48 437.345
CUBEBUG 2 30 Mar 11:17:23 11:21:49 79° 101° (E) 11:26:24 437.445
VELOX 1 30 Mar 11:18:32 11:21:22 17° 91° (E) 11:24:20 145.980
CANX-2 30 Mar 11:21:24 11:24:41 21° 293° (WNW) 11:27:52 2200.000
AISAT 30 Mar 11:23:21 11:26:32 20° 92° (E) 11:29:50 437.250
VERMONT LUNAR 30 Mar 11:25:43 11:27:09 12° 210° (SSW) 11:28:31 437.305
DELFI C3 30 Mar 11:29:10 11:33:18 75° 284° (WNW) 11:37:22 145.870
CUTE 1.7 + AOD 2 30 Mar 11:35:35 11:38:25 17° 295° (WNW) 11:41:06 437.475
AIST 2 30 Mar 11:39:26 11:43:37 58° 120° (ESE) 11:47:51 435.215
BUGSAT 1 30 Mar 11:39:33 11:43:40 65° 75° (ENE) 11:47:45 437.445
DOVE 4 30 Mar 11:39:51 11:43:00 19° 293° (WNW) 11:46:08 437.250
POPSAT HIP 1 30 Mar 11:45:13 11:49:26 78° 257° (WSW) 11:53:40 437.405
NANOSAT C BR1 30 Mar 11:55:30 11:59:40 60° 259° (W) 12:03:50 145.865
ESTCUBE 1 30 Mar 11:55:45 11:59:17 23° 93° (E) 12:02:54 437.505/2401.250
AAUSAT CUBESAT 2 30 Mar 11:56:36 11:59:17 16° 295° (WNW) 12:01:49 437.432
UKube-1 30 Mar 11:58:28 12:02:49 82° 286° (WNW) 12:07:08 .
BEESAT 2 30 Mar 12:00:40 12:04:28 33° 312° (NW) 12:08:16 435.950
POLYITAN 1 30 Mar 12:00:42 12:04:49 51° 260° (W) 12:08:56 437.675
HUMSAT D 30 Mar 12:00:45 12:05:01 80° 102° (ESE) 12:09:19 437.325/437.525
SEEDS 30 Mar 12:05:13 12:06:04 10° 298° (WNW) 12:06:41 437.485
DX 1 30 Mar 12:10:01 12:14:18 58° 287° (WNW) 12:18:32 434.975-435.025
UNISAT 6 30 Mar 12:11:50 12:15:13 22° 268° (W) 12:18:32 437.425
PHONESAT 2.4 30 Mar 12:13:37 12:15:31 14° 210° (SSW) 12:17:21 2401.200-2431.200
HO-68 30 Mar 12:14:32 12:19:55 23° 303° (WNW) 12:25:04 435.675
TIGRISAT 30 Mar 12:22:08 12:25:06 18° 269° (W) 12:27:59 435.000
Oscar 11 30 Mar 12:29:01 12:31:47 16° 295° (WNW) 12:34:25 145.826/435.025
YUBILEINY 30 Mar 12:32:38 12:35:44 13° 75° (ENE) 12:39:31 435.215
50 SAT 30 Mar 12:36:10 12:40:10 60° 286° (WNW) 12:44:09 437.505
BEESAT 3 30 Mar 12:38:14 12:40:54 16° 321° (NW) 12:43:28 437.485
QB50P1 30 Mar 12:38:31 12:41:45 21° 267° (W) 12:44:55 145.935-145.965
DUCHIFAT 1 30 Mar 12:39:50 12:43:02 20° 267° (W) 12:46:10 145.980
FUNcube-1 30 Mar 12:40:50 12:44:16 22° 292° (WNW) 12:47:39 145.935
TISAT 1 30 Mar 12:43:49 12:45:55 14° 90° (E) 12:48:13 437.305
UWE-3 30 Mar 12:48:17 12:51:02 16° 295° (WNW) 12:53:41 435.000/436.395/437.385
CUBEBUG 1 30 Mar 12:51:00 12:55:21 78° 102° (ESE) 12:59:40 437.445
VELOX 1 30 Mar 12:54:01 12:58:14 46° 289° (WNW) 13:02:27 145.980
ZACube-1 30 Mar 12:54:37 12:57:27 17° 295° (WNW) 13:00:10 437.345
QB50P2 30 Mar 12:54:47 12:57:10 14° 271° (W) 12:59:21 145.880/145.840
CUBEBUG 2 30 Mar 12:56:22 12:58:02 12° 297° (WNW) 12:59:29 437.445
SPROUT 30 Mar 12:56:47 13:00:13 24° 94° (E) 13:03:43 437.525
AISAT 30 Mar 12:59:13 13:03:21 39° 289° (WNW) 13:07:26 437.250
Oscar 19 30 Mar 13:06:34 13:10:47 28° 66° (ENE) 13:15:08 437.125/150
BUGSAT 1 30 Mar 13:18:28 13:19:39 11° 272° (W) 13:20:35 437.445
AIST 2 30 Mar 13:19:23 13:22:35 20° 319° (NW) 13:25:44 435.215
Gurwin Techsat 1B 30 Mar 13:31:58 13:34:28 14° 59° (ENE) 13:37:13 435.225
ESTCUBE 1 30 Mar 13:32:09 13:36:18 36° 290° (WNW) 13:40:23 437.505/2401.250
HUMSAT D 30 Mar 13:39:04 13:40:15 11° 298° (WNW) 13:41:13 437.325/437.525
O/OREOS (USA 219) 30 Mar 13:44:54 13:48:57 31° 58° (ENE) 13:52:59 437.305
SWISSCUBE 30 Mar 13:57:15 14:00:07 16° 90° (E) 14:03:12 437.505
BEESAT 30 Mar 14:00:03 14:02:53 16° 90° (E) 14:05:55 436.000
ITAMSAT 1 30 Mar 14:13:44 14:18:31 38° 68° (ENE) 14:23:20 435.822/435.867
TISAT 1 30 Mar 14:18:00 14:22:06 52° 287° (WNW) 14:26:11 437.305
YUBILEINY 30 Mar 14:22:23 14:31:04 69° 94° (E) 14:39:52 435.215
PCSat 30 Mar 14:28:13 14:32:26 24° 108° (ESE) 14:36:47 145.827
CUBEBUG 1 30 Mar 14:29:45 14:31:10 11° 298° (WNW) 14:32:22 437.445
SPROUT 30 Mar 14:32:33 14:36:22 31° 290° (WNW) 14:40:08 437.525
Oscar 19 30 Mar 14:45:15 14:50:01 38° 263° (W) 14:54:47 437.125/150
ITUPSAT 1 30 Mar 14:46:22 14:50:58 45° 99° (E) 14:55:33 437.325
AO-7 30 Mar 14:51:28 14:57:47 26° 54° (NE) 15:04:18 29.400- 29.500
HORYU 2 30 Mar 15:03:41 15:06:48 20° 65° (ENE) 15:10:03 437.375
Gurwin Techsat 1B 30 Mar 15:08:28 15:13:47 88° 255° (WSW) 15:19:09 435.225
AIST 1 30 Mar 15:10:59 15:14:32 25° 72° (ENE) 15:18:06
O/OREOS (USA 219) 30 Mar 15:24:24 15:28:19 28° 256° (WSW) 15:32:07 437.305
KKS-1 30 Mar 15:27:05 15:30:35 23° 93° (E) 15:34:09 437.445
SWISSCUBE 30 Mar 15:33:43 15:38:26 56° 288° (WNW) 15:43:05 437.505
BEESAT 30 Mar 15:36:29 15:41:12 57° 287° (WNW) 15:45:52 436.000
ITAMSAT 1 30 Mar 15:53:38 15:58:07 28° 266° (W) 16:02:33 435.822/435.867
STARS 30 Mar 15:56:10 16:00:01 29° 96° (E) 16:03:54 437.465
JAS-2 30 Mar 16:01:06 16:07:38 44° 66° (ENE) 16:14:51 435.910
PCSat 30 Mar 16:10:17 16:15:33 51° 306° (NW) 16:20:52 145.827
YUBILEINY 30 Mar 16:21:23 16:28:47 28° 296° (WNW) 16:35:59 435.215
ITUPSAT 1 30 Mar 16:24:55 16:28:36 22° 295° (WNW) 16:32:10 437.325
HORYU 2 30 Mar 16:38:57 16:43:11 43° 261° (W) 16:47:27 437.375
AO-7 30 Mar 16:41:29 16:49:50 81° 253° (WSW) 16:58:11 29.400- 29.500
AIST 1 30 Mar 16:48:30 16:52:12 28° 270° (W) 16:55:49
Gurwin Techsat 1B 30 Mar 16:53:04 16:54:40 11° 275° (W) 16:55:55 435.225
KKS-1 30 Mar 17:03:15 17:07:20 35° 290° (WNW) 17:11:21 437.445
MOZHAYETS 4 30 Mar 17:10:40 17:13:48 18° 90° (E) 17:17:04
STARS 30 Mar 17:32:41 17:36:25 27° 292° (WNW) 17:40:07 437.465
BEESAT 3 30 Mar 17:41:08 17:41:38 10° 32° (NNE) 17:42:17 437.485
JAS-2 30 Mar 17:46:13 17:52:44 40° 267° (W) 17:59:49 435.910
PCSat 30 Mar 17:58:19 18:00:23 12° 329° (NNW) 18:02:15 145.827
M-CUBED/EXP-1 PRIME 30 Mar 17:58:24 18:01:37 18° 95° (E) 18:04:57 437.505
SO-50 30 Mar 18:06:35 18:07:25 11° 107° (ESE) 18:08:33 436.795
CUTE-I 30 Mar 18:22:42 18:27:50 49° 70° (ENE) 18:33:00 437.470
Cubesat XI-IV 30 Mar 18:23:14 18:28:24 50° 71° (ENE) 18:33:36 437.490
AO-7 30 Mar 18:39:05 18:44:05 16° 274° (W) 18:48:33 29.400- 29.500
BEESAT 2 30 Mar 18:41:19 18:44:46 25° 44° (NE) 18:48:12 435.950
GONETS M04 30 Mar 18:43:20 18:49:13 22° 80° (E) 18:55:31
MOZHAYETS 4 30 Mar 18:46:51 18:51:21 47° 288° (WNW) 18:55:47
CUBESAT XI-V 30 Mar 19:01:04 19:04:25 20° 91° (E) 19:07:53 437.345
AUBIESAT-1 30 Mar 19:06:25 19:11:17 75° 107° (ESE) 19:16:00 437.475
RS-15 30 Mar 19:07:26 19:17:30 47° 111° (ESE) 19:27:51 29.354- 29.394
HO-68 30 Mar 19:11:53 19:15:09 14° 51° (NE) 19:18:48 435.675
BEESAT 3 30 Mar 19:16:33 19:20:38 58° 53° (NE) 19:24:39 437.485
PRISM 30 Mar 19:17:33 19:20:41 21° 93° (E) 19:23:53 437.425
M-CUBED/EXP-1 PRIME 30 Mar 19:32:05 19:36:52 57° 292° (WNW) 19:41:32 437.505
SO-50 30 Mar 19:42:37 19:47:16 89° 124° (SE) 19:52:05 436.795
GOMX 1 30 Mar 19:51:31 19:52:37 11° 63° (ENE) 19:53:56 467.674
AIST 2 30 Mar 20:00:30 20:04:40 50° 52° (NE) 20:08:45 435.215
CUTE-I 30 Mar 20:04:00 20:08:13 23° 268° (W) 20:12:19 437.470
Cubesat XI-IV 30 Mar 20:04:39 20:08:50 22° 268° (W) 20:12:53 437.490
STRAND 1 30 Mar 20:18:51 20:23:56 62° 101° (E) 20:28:59 437.568
BEESAT 2 30 Mar 20:19:11 20:23:02 37° 243° (WSW) 20:26:48 435.950
